Hauptseite
METAR-TAF:

METAR-TAF

Flughäfen :

Meierwik

Glücksburg, Deutschland

Breite: 54-50N, Länge: 009-30E, Höhe: 27 m

Beobachtung

Neuester Wetterbericht von vor 57 Minuten, um 08:20 UTC
Wind 11 kt aus West/Südwest
Temperatur 14°C
Luftfeuchtigkeit 82%
Luftdruck 999 hPa
Sichtweite 10 km oder mehr

METAR: ETGG 240820Z AUTO 24011KT 9999 // ////// 14/11 Q0999 ///

Zeit: 11:17 (09:17 UTC)


TAF: fehlend

Wetterbeobachtungen und Prognosen von mehr als 4000 Flughäfen (METAR und TAF Bericht).

Die verfügbaren Stationen werden durch gelbe und rote Markierungen auf der Karte dargestellt.

Führen Sie die Maus auf sie, um den Namen der Station zu sehen.

Darauf klicken, um die Beobachtung von Wetterbeobachtungen und Prognosen zu sehen.

Um die Karte zu ändern : klicken Sie auf den grünen Tasten mit einem schwarzen Kreuz Zum Vergrößern, auf den grünen Button mit einem Gedankenstrich zu verkleinern, oder auf die grünen Pfeile für benachbarte Karten.


METAR-TAF: